Regional Weather Roundup
Issued by NWS Little Rock, AR

Home | Current Version | Previous Version | Text Only | Print | Product List | Glossary Off
Versions: 1 2 3 4 5 6 7 8 9 10 11 12 13 14 15 16 17 18 19 20 21 22 23 24 25 26 27 28 29 30 31 32 33 34 35 36 37 38 39 40 41 42 43 44 45 46 47 48 49 50

000
ASUS44 KLZK 232305
RWRLZK

WEATHER ROUNDUP FOR ARKANSAS
NATIONAL WEATHER SERVICE LITTLE ROCK AR
600 PM CDT SAT SEP 23 2017

NOTE: "FAIR" INDICATES FEW OR NO CLOUDS BELOW 12,000 FEET WITH NO
SIGNIFICANT WEATHER AND/OR OBSTRUCTIONS TO VISIBILITY.

ARZ001-003-010-029-240000-
NORTHWEST ARKANSAS

CITY           SKY/WX    TMP DP  RH WIND       PRES   REMARKS
FAYETTEVILLE   SUNNY     87  65  47 SE5       29.96S HX  89
FORT SMITH     SUNNY     92  64  39 E9        29.90S HX  93
HARRISON       SUNNY     89  59  36 E7        29.98S HX  88
BENTONVILLE    SUNNY     87  62  43 E5        29.99S HX  87
ROGERS         SUNNY     87  63  44 E6        29.98S HX  88
SILOAM SPGS    MOSUNNY   87  64  46 MISG        N/A  HX  88
HIGHFILL       SUNNY     88  63  43 CALM      29.97S HX  89
SPRINGDALE     MOSUNNY   88  61  40 SE6       29.98F HX  88
$$

ARZ004-005-016-240000-
NORTH CENTRAL ARKANSAS

CITY           SKY/WX    TMP DP  RH WIND       PRES   REMARKS
BATESVILLE     SUNNY     89  67  47 E7        29.96S HX  92
FLIPPIN        SUNNY     90  64  42 VRB3      29.96S HX  91
MTN HOME       PTSUNNY   89  62  40 SE9       29.96S HX  89
$$

ARZ040-041-240000-
WEST CENTRAL ARKANSAS

CITY           SKY/WX    TMP DP  RH WIND       PRES   REMARKS
MENA           MOSUNNY   88  64  45 CALM      29.95R HX  89
MOUNT IDA      MOSUNNY   83  65  54 CALM      29.92S HX  85
$$

ARZ009-017-025-026-028-240000-
NORTHEAST ARKANSAS

CITY           SKY/WX    TMP DP  RH WIND       PRES   REMARKS
CORNING        FAIR      90  68  48 SE8       29.96S HX  93
JONESBORO      SUNNY     89  69  51 E9        29.95S HX  93
NEWPORT        SUNNY     90  66  45 E7        29.95S HX  92
BLYTHEVILLE    SUNNY     89  67  47 E3        29.96S HX  92
$$

ARZ022-023-033-042-044-240000-
CENTRAL ARKANSAS

CITY           SKY/WX    TMP DP  RH WIND       PRES   REMARKS
LITTLE ROCK    MOSUNNY   89  67  47 E8        29.93S HX  92
N LITTLE ROCK    N/A     89  67  48 E7        29.94S HX  92
JACKSONVILLE   SUNNY     91  68  46 E8        29.93S HX  94
CONWAY           N/A     91  64  40 E9G15     29.91S HX  93
SEARCY         SUNNY     90  69  50 E6        29.96S HX  94
HOT SPRINGS    SUNNY     92  64  39 SE9       29.92S HX  93
RUSSELLVILLE   SUNNY     90  64  42 E7        29.92S HX  91
CLINTON        FAIR      90  64  43 E7        29.95S HX  91
$$

ARZ036-240000-
EAST ARKANSAS

CITY           SKY/WX    TMP DP  RH WIND       PRES   REMARKS
WEST MEMPHIS   SUNNY     89  69  51 E6        29.93S HX  93
$$

ARZ050-053-066-070-073-240000-
SOUTHWEST ARKANSAS

CITY           SKY/WX    TMP DP  RH WIND       PRES   REMARKS
ARKADELPHIA    FAIR      91  70  49 VRB3      29.91S HX  96
CAMDEN         MOSUNNY   91  66  43 E5        29.90S HX  94
TEXARKANA      SUNNY     89  65  44 E6        29.90S HX  91
EL DORADO      MOSUNNY   90  67  46 NE8       29.91F HX  93
DE QUEEN       PTSUNNY   87  66  49 E9        29.89R HX  89
$$

ARZ056-057-069-240000-
SOUTHEAST ARKANSAS

CITY           SKY/WX    TMP DP  RH WIND       PRES   REMARKS
PINE BLUFF     SUNNY     88  67  49 E7        29.92S HX  91
STUTTGART      SUNNY     90  68  48 E7        29.93S HX  94
MONTICELLO     SUNNY     90  68  48 CALM      29.92S HX  94

$$





USA.gov is the U.S. government's official web portal to all federal, state and local government web resources and services.